GW5292 Weather Reports


time (UTC)temp
C
wind
direction
speed
KPH
gust
KPH
rain 1hr
cm
rain 24hr
cm
rain mn
cm
humidity
%
barometer
mb
20260901150017 25 191 3.2 4.8 0.00 0.08 0.00 90 1015.9
20260901144535 24 203 1.6 3.2 0.00 0.08 0.00 90 1015.9
20260901143031 24 203 1.6 3.2 0.00 0.08 0.00 89 1016.0
20260901141536 24 185 1.6 4.8 0.00 0.08 0.00 88 1015.7
20260901140017 24 194 3.2 6.4 0.00 0.08 0.00 88 1015.6
20260901134527 24 200 4.8 6.4 0.00 0.08 0.00 90 1015.8
20260901133038 23 197 1.6 4.8 0.00 0.08 0.00 93 1015.8
20260901131534 22 192 3.2 4.8 0.00 0.08 0.00 96 1015.8
20260901130033 22 213 1.6 3.2 0.00 0.08 0.00 97 1016.2
20260901124531 22 96 0.0 1.6 0.00 0.08 0.00 97 1016.4
20260901123028 21 96 0.0 0.0 0.00 0.08 0.00 97 1016.2
20260901121529 21 350 0.0 3.2 0.00 0.08 0.00 97 1016.5
20260901120003 21 352 0.0 3.2 0.00 0.08 0.00 97 1016.0
20260901114503 21 182 0.0 0.0 0.00 0.08 0.00 97 1015.7
20260901113004 20 182 0.0 0.0 0.00 0.08 0.00 97 1015.8
20260901111504 20 182 0.0 0.0 0.00 0.08 0.00 97 1016.0
20260901110007 20 182 0.0 0.0 0.00 0.08 0.00 97 1016.1
20260901104503 20 182 0.0 0.0 0.00 0.08 0.00 97 1016.1
20260901103003 20 182 0.0 0.0 0.00 0.08 0.00 97 1016.3
20260901101503 20 182 0.0 0.0 0.00 0.08 0.00 97 1016.1
20260901100003 20 182 0.0 0.0 0.00 0.08 0.00 97 1016.1
20260901094506 20 182 0.0 0.0 0.00 0.08 0.00 96 1016.1
20260901093004 20 182 0.0 0.0 0.00 0.08 0.00 96 1016.2
20260901091503 20 182 0.0 0.0 0.00 0.08 0.00 96 1016.3
20260901090013 20 182 0.0 0.0 0.00 0.08 0.00 96 1016.2
20260901084505 20 182 0.0 0.0 0.00 0.08 0.00 96 1016.3
20260901083008 20 182 0.0 0.0 0.00 0.08 0.00 96 1016.4
20260901081516 20 182 0.0 0.0 0.00 0.08 0.00 96 1016.4
20260901080005 20 182 0.0 0.0 0.00 0.08 0.00 96 1016.5
20260901074507 20 182 0.0 0.0 0.00 0.08 0.00 96 1016.7
20260901073022 20 182 0.0 0.0 0.00 0.08 0.00 96 1016.7
20260901071509 20 182 0.0 0.0 0.00 0.08 0.00 96 1016.6
20260901070023 20 182 0.0 0.0 0.00 0.08 0.00 96 1016.6
20260901064511 20 182 0.0 0.0 0.00 0.08 0.00 96 1016.7
20260901063011 20 182 0.0 0.0 0.00 0.08 0.00 96 1016.9
20260901061511 20 182 0.0 0.0 0.00 0.08 0.00 96 1017.0
20260901060011 20 182 0.0 0.0 0.00 0.08 0.00 95 1017.3
20260901054513 20 182 0.0 0.0 0.00 0.08 0.00 96 1017.3
20260901053011 20 182 0.0 0.0 0.00 0.08 0.00 96 1017.4
20260901051513 20 182 0.0 0.0 0.00 0.08 0.00 96 1017.5
20260901050018 20 182 0.0 0.0 0.00 0.08 0.00 95 1017.7
20260901044516 21 182 0.0 0.0 0.00 0.08 0.00 95 1017.5
20260901043018 20 182 0.0 0.0 0.00 0.08 0.00 95 1017.4
20260901041515 21 182 0.0 0.0 0.03 0.08 0.00 95 1017.5
20260901040020 21 182 0.0 0.0 0.03 0.08 0.00 94 1017.8
20260901034522 21 182 0.0 0.0 0.03 0.08 0.08 94 1017.9
20260901033034 21 182 0.0 0.0 0.03 0.08 0.08 94 1017.8
20260901031520 21 182 0.0 0.0 0.00 0.05 0.05 93 1018.0
20260901030015 21 182 0.0 0.0 0.00 0.05 0.05 94 1018.3
20260901024526 21 182 0.0 0.0 0.00 0.05 0.05 94 1018.3
20260901023028 21 182 0.0 0.0 0.00 0.05 0.05 94 1018.3
20260901021522 20 182 0.0 0.0 0.00 0.05 0.05 93 1018.3
20260901020028 20 182 0.0 0.0 0.00 0.05 0.05 93 1018.3
20260901014517 20 182 0.0 0.0 0.00 0.05 0.05 93 1018.2
20260901013023 20 182 0.0 0.0 0.00 0.05 0.05 92 1018.2
20260901011526 21 182 0.0 0.0 0.00 0.05 0.05 92 1018.2
20260901010025 21 182 0.0 0.0 0.00 0.05 0.05 91 1018.1
20260901004532 21 182 0.0 0.0 0.00 0.05 0.05 91 1018.1
20260901003024 21 182 0.0 0.0 0.00 0.05 0.05 90 1018.1
20260901001533 21 182 0.0 0.0 0.00 0.05 0.05 89 1018.0
20260901000027 22 182 0.0 0.0 0.00 0.05 0.05 87 1018.0
20260831234537 22 182 0.0 0.0 0.00 0.05 0.05 86 1017.9
20260831233029 22 182 0.0 0.0 0.00 0.05 0.05 85 1017.9
20260831231522 23 182 0.0 3.2 0.00 0.05 0.05 84 1017.9
20260831230029 23 182 0.0 3.2 0.00 0.05 0.05 83 1018.0
20260831224530 23 182 0.0 0.0 0.00 0.05 0.05 83 1018.2
20260831223028 23 182 0.0 3.2 0.00 0.05 0.05 82 1018.2
20260831221531 23 182 0.0 3.2 0.00 0.05 0.05 81 1018.3
20260831220030 23 182 0.0 0.0 0.00 0.05 0.05 81 1018.5
20260831214540 24 182 0.0 3.2 0.00 0.05 0.05 79 1018.6
20260831213038 24 182 0.0 3.2 0.00 0.05 0.05 81 1018.6
20260831211530 23 182 0.0 1.6 0.00 0.05 0.05 83 1018.7
20260831210004 23 182 0.0 3.2 0.00 0.05 0.05 85 1018.8
20260831204504 23 182 0.0 3.2 0.00 0.05 0.05 84 1019.0
20260831203037 23 203 0.0 3.2 0.00 0.05 0.05 85 1019.2
20260831201518 22 200 1.6 3.2 0.03 0.05 0.05 91 1019.3
20260831200026 22 207 0.0 3.2 0.05 0.05 0.05 90 1019.3
20260831194504 22 207 0.0 1.6 0.05 0.05 0.05 90 1019.4
20260831193011 22 207 0.0 3.2 0.05 0.05 0.05 88 1019.5
20260831191515 22 207 1.6 3.2 0.03 0.03 0.03 86 1020.0
20260831190026 23 192 0.0 3.2 0.00 0.00 0.00 83 1019.8
20260831184530 23 192 1.6 3.2 0.00 0.00 0.00 81 1019.9
20260831183007 24 192 1.6 3.2 0.00 0.00 0.00 78 1020.2
20260831181510 24 192 1.6 3.2 0.00 0.00 0.00 75 1020.2
20260831180020 25 192 0.0 3.2 0.00 0.00 0.00 78 1020.1
20260831174524 24 192 0.0 3.2 0.00 0.00 0.00 77 1020.2
20260831173027 24 192 1.6 3.2 0.00 0.00 0.00 75 1020.2
20260831171509 25 342 0.0 3.2 0.00 0.00 0.00 75 1020.0
20260831170026 24 342 1.6 3.2 0.00 0.00 0.00 74 1020.2
20260831164519 25 351 1.6 4.8 0.00 0.00 0.00 72 1020.3
20260831163028 25 209 0.0 4.8 0.00 0.00 0.00 75 1020.2
20260831161532 24 12 0.0 4.8 0.00 0.00 0.00 74 1020.4
20260831160018 24 18 0.0 4.8 0.00 0.00 0.00 74 1020.3
20260831154543 24 277 1.6 6.4 0.00 0.00 0.00 75 1020.3
20260831153046 23 173 1.6 6.4 0.00 0.00 0.00 75 1020.6
20260831151527 23 13 1.6 4.8 0.00 0.00 0.00 79 1020.6